GFSFLT1_250_spd_000.txt.gz
Wind_Speed
33 34 36 38 38 38 36 40 44 44 44 43 45 48 50 53 55 57 58 59 61 64 67 69 69 70 68 67 69 70 68 63
34 35 38 39 37 37 39 43 47 45 45 49 52 54 56 58 61 62 64 67 70 71 69 69 70 72 74 74 74 74 74 78
35 38 41 42 42 44 46 46 45 47 50 54 57 59 61 63 65 68 70 71 71 70 70 73 76 77 76 82 84 86 84 86
39 43 46 48 48 44 44 48 52 53 55 57 59 62 66 68 69 71 71 71 73 74 77 82 83 84 87 89 91 94 94 95
44 47 47 43 44 47 50 53 53 54 57 60 63 65 67 69 69 73 75 77 80 81 84 87 87 88 90 94 94 97 100 99
44 40 43 47 49 52 52 53 56 58 60 63 66 68 70 73 76 78 82 85 87 90 92 95 99 100 103 105 107 108 108 107
41 48 49 51 51 53 56 58 62 66 67 72 74 75 79 84 87 91 94 96 96 100 104 106 111 114 116 115 116 111 110 107
49 51 52 52 55 59 63 66 70 70 76 80 82 86 89 92 95 99 103 104 107 109 114 119 121 121 123 124 117 110 107 106
50 51 54 57 61 62 64 68 70 74 79 84 87 92 95 98 101 106 109 113 117 121 123 125 126 129 128 121 109 104 101 97
55 57 60 61 61 63 69 73 76 81 86 90 95 99 103 107 111 113 117 121 126 127 131 132 130 125 115 107 102 97 94 89
57 59 61 61 63 69 74 78 82 87 93 99 102 106 111 113 115 119 124 128 130 133 131 131 124 112 105 99 94 92 92 90
58 63 61 64 71 78 83 86 90 96 101 104 108 112 117 120 125 128 132 133 132 130 126 115 108 103 99 96 93 90 85 82
65 66 70 75 81 86 90 94 99 104 107 111 115 119 125 129 131 134 134 131 124 115 109 105 101 99 98 93 88 82 77 74
70 74 77 82 87 91 95 100 105 109 114 118 123 128 131 134 134 132 127 119 110 107 104 101 99 95 91 84 79 75 72 69
75 79 83 88 92 97 102 108 112 118 123 126 129 133 136 135 126 118 111 106 105 102 99 94 91 86 82 78 73 69 64 60
82 85 88 94 98 103 109 114 118 124 129 131 130 130 124 118 110 105 104 103 101 96 89 83 80 76 73 70 66 61 59 57
85 90 96 100 103 109 116 120 128 135 135 128 124 116 110 106 106 105 102 98 93 86 80 75 71 67 65 62 61 57 55 53
92 96 101 105 111 115 122 132 132 129 122 118 112 107 107 106 105 100 94 88 83 79 75 70 66 62 61 58 56 54 50 45
97 102 107 113 118 126 131 132 128 119 115 109 106 107 105 102 97 91 85 80 76 73 68 65 62 57 54 51 51 49 47 43

GFSFLT1_250_spd_003.txt.gz
Wind_Speed
39 41 41 38 37 40 41 39 43 45 46 50 48 48 52 54 55 56 56 58 60 62 64 66 67 67 66 67 68 69 68 72
36 37 36 35 40 42 46 44 49 47 43 47 53 54 55 56 57 58 63 65 67 67 67 69 70 70 70 72 74 73 73 74
33 34 36 41 46 49 46 42 45 49 51 54 57 57 59 62 65 65 66 68 72 74 75 77 79 81 84 85 85 83 82 84
32 37 42 46 46 41 45 50 52 54 55 56 59 62 64 69 71 71 74 74 75 77 80 81 83 87 88 88 89 90 90 90
37 42 44 44 44 50 54 56 56 56 60 61 65 65 67 70 69 71 76 80 83 88 91 93 96 98 99 99 102 101 105 102
43 46 45 45 52 56 57 56 59 63 66 68 67 68 74 75 77 80 85 90 93 95 98 102 106 107 107 110 112 113 114 114
45 47 46 51 58 59 61 63 64 68 68 67 72 77 79 83 87 91 95 100 103 107 110 114 116 118 119 122 123 124 121 121
46 47 51 57 59 62 66 66 67 67 68 75 80 84 88 92 95 100 103 107 111 114 117 121 124 127 129 130 131 130 126 122
49 52 56 59 61 63 67 69 70 72 77 82 86 91 95 98 102 105 111 115 118 122 126 129 134 135 134 133 133 128 122 112
54 57 60 63 64 67 69 72 76 79 83 89 93 95 99 104 108 113 116 121 126 132 136 140 138 134 131 127 117 109 103 99
58 62 64 65 67 72 75 79 83 88 91 93 100 103 106 110 115 121 125 129 134 138 137 134 125 118 114 108 103 101 99 99
59 63 67 68 73 77 81 85 90 94 96 102 105 109 115 118 123 127 132 137 139 137 131 121 114 108 108 104 102 100 97 93
64 66 68 73 77 83 87 92 94 100 104 108 113 117 122 126 130 136 139 138 132 120 112 109 109 106 103 100 96 93 88 83
70 73 77 80 84 89 94 97 103 108 112 116 121 125 130 134 135 138 131 121 116 113 111 109 106 103 99 94 89 82 79 76
75 77 81 85 89 92 101 104 108 114 118 123 129 134 136 135 133 126 120 116 112 109 108 105 99 93 86 84 80 77 73 70
79 83 87 91 96 103 108 113 115 120 126 129 133 136 131 128 123 119 114 111 109 106 100 93 87 83 78 78 74 72 67 64
85 88 92 98 103 108 114 120 128 133 135 135 131 125 120 117 115 111 109 106 101 95 88 83 79 75 69 70 67 66 64 60
86 93 100 107 112 119 123 132 137 135 129 122 115 111 111 110 108 106 102 96 88 83 79 75 71 67 62 65 62 59 56 54
97 104 109 115 120 122 129 135 127 118 112 109 109 108 106 105 101 95 89 84 79 75 70 66 62 62 58 58 55 51 48 46

GFSFLT1_250_spd_006.txt.gz
Wind_Speed
30 34 37 35 31 32 32 41 49 49 50 53 51 51 55 58 60 56 61 62 63 63 64 66 66 65 65 66 66 67 70 70
31 37 32 34 33 34 39 44 50 47 45 51 58 60 60 58 60 62 65 67 68 67 68 69 69 72 74 75 75 77 78 81
34 36 38 37 39 43 44 45 50 52 54 58 60 62 63 64 66 68 68 67 69 74 75 75 78 80 82 85 87 87 86 89
36 38 40 40 44 48 49 49 51 57 60 61 64 66 68 69 71 72 68 74 78 81 82 84 88 91 94 96 96 98 97 97
39 42 44 46 50 52 53 53 56 64 65 63 66 70 72 74 74 74 78 83 86 89 93 94 96 98 102 104 107 109 110 109
38 42 44 48 52 55 56 57 62 66 67 69 71 71 72 76 79 81 84 90 94 97 98 103 104 106 110 114 114 117 120 120
42 45 46 51 55 56 60 65 67 68 70 73 75 78 83 86 89 91 94 98 101 105 109 112 116 117 120 121 124 125 127 130
48 50 50 50 55 60 65 69 72 74 73 75 81 85 89 92 94 98 102 104 110 115 118 122 124 126 128 129 133 135 133 130
50 49 51 54 57 60 64 71 75 77 80 81 84 89 94 98 102 107 109 114 119 122 125 130 132 132 133 134 133 127 120 113
51 53 53 58 59 63 69 73 79 83 86 90 93 97 101 106 110 116 120 124 128 132 134 137 135 132 130 125 120 113 111 110
51 54 57 60 62 69 76 80 83 88 92 97 100 103 109 114 122 127 130 131 134 137 137 134 128 122 117 114 112 109 105 103
52 57 62 64 70 77 82 86 87 92 96 100 107 113 120 125 131 133 131 133 137 133 125 119 114 111 109 107 105 103 100 94
59 63 66 71 76 82 84 88 92 98 103 109 118 123 128 132 133 135 133 133 128 124 120 118 116 114 111 106 103 98 90 85
63 69 73 79 85 87 91 94 99 105 111 116 127 128 133 136 137 132 125 121 118 117 118 115 112 108 104 98 93 86 81 79
69 74 80 84 89 92 97 103 109 114 118 122 133 134 136 136 127 119 116 115 116 116 113 110 104 97 89 88 85 79 75 73
73 78 84 88 92 98 103 111 117 123 129 130 132 130 124 119 116 114 114 113 112 109 104 97 91 84 79 79 79 74 70 67
79 83 87 92 99 104 110 116 126 127 132 132 127 123 109 107 106 105 104 102 99 94 89 83 79 75 72 72 71 66 63 61
84 88 94 99 105 112 114 122 130 134 130 125 122 114 112 109 105 99 93 89 85 81 77 74 74 70 65 64 63 61 59 55
89 94 100 105 110 116 121 128 132 130 125 122 114 109 105 102 98 93 87 82 79 76 72 70 67 66 60 58 58 56 53 47

GFSFLT1_250_spd_009.txt.gz
Wind_Speed
32 37 40 36 32 26 25 35 43 44 49 57 60 60 56 56 62 64 64 64 66 69 70 69 70 68 66 69 71 73 72 72
32 34 37 34 31 34 35 40 44 47 51 58 61 58 59 61 66 66 65 66 68 71 75 76 74 74 76 79 79 80 82 83
31 31 35 35 39 43 40 46 51 54 57 60 60 63 65 69 70 70 71 73 75 74 76 79 80 81 85 87 88 87 89 94
33 37 39 34 41 45 49 52 54 56 59 59 62 66 68 70 73 75 78 81 82 85 87 87 88 89 92 95 98 100 101 104
41 41 38 42 45 48 51 54 59 60 56 60 64 67 70 75 77 80 82 85 89 93 96 98 100 101 103 105 108 112 114 115
36 41 47 50 51 53 56 59 62 61 61 64 67 72 76 80 83 85 88 92 96 100 103 105 109 113 117 119 121 124 123 123
35 37 44 52 56 58 58 58 60 63 67 69 72 80 85 88 91 93 96 100 106 110 112 114 118 122 124 125 125 124 123 122
39 40 43 49 53 57 60 62 65 68 70 71 78 84 88 91 94 97 102 108 112 115 122 126 129 132 129 129 127 124 119 116
42 42 45 46 50 54 56 61 67 73 78 83 88 93 97 101 106 108 111 115 122 128 128 131 134 132 129 125 121 115 109 105
46 48 49 53 54 57 62 67 72 78 83 89 94 99 102 106 112 116 119 121 129 132 135 135 132 128 124 118 113 110 108 105
49 52 54 56 58 63 68 74 79 84 87 92 98 103 106 111 117 123 125 129 135 136 138 132 126 120 116 111 109 107 104 101
51 55 58 60 64 68 73 77 81 86 92 98 102 108 113 119 125 130 132 137 138 132 128 124 119 115 111 108 105 102 96 90
56 56 59 63 67 72 77 82 87 93 97 103 110 114 120 124 132 135 137 138 129 124 123 118 114 110 106 101 97 93 87 81
58 60 63 69 72 78 84 90 94 99 102 109 116 123 127 129 130 126 124 120 116 118 116 113 110 104 98 93 89 86 80 76
59 64 67 72 76 82 88 95 99 104 111 115 122 128 129 130 128 121 115 113 108 106 103 98 93 88 84 81 81 79 75 72
62 66 70 75 81 88 93 99 106 113 119 125 126 129 129 129 121 115 114 109 103 95 89 84 81 78 75 74 75 71 69 67
65 71 76 83 89 93 99 106 111 118 124 129 132 132 133 124 117 113 108 100 93 87 82 77 76 74 70 69 69 66 64 62
73 80 85 89 93 100 105 111 117 120 127 132 132 130 122 117 112 105 97 90 86 82 77 75 73 69 66 63 63 62 59 57
81 86 90 95 102 105 109 115 122 125 131 129 130 122 115 109 104 96 90 85 82 78 74 70 66 65 62 60 56 55 53 50

GFSFLT1_250_spd_012.txt.gz
Wind_Speed
41 37 43 46 43 35 37 46 53 54 50 55 58 58 60 63 66 68 65 65 65 68 70 71 71 72 75 76 76 76 76 77
39 41 45 44 40 37 46 50 51 52 53 56 58 61 64 67 68 66 65 67 69 71 74 76 78 80 82 83 82 84 86 85
39 42 46 40 43 46 51 50 48 52 55 58 62 65 68 72 69 66 70 73 76 79 82 85 87 88 88 89 91 92 93 95
41 43 41 39 42 45 46 49 53 54 57 61 65 70 70 69 72 75 78 81 84 87 91 92 92 92 93 95 98 101 103 105
38 39 40 41 41 44 49 53 56 58 62 65 65 67 69 71 74 80 83 87 90 95 98 99 102 104 106 108 110 114 117 117
45 43 43 43 46 49 53 54 57 59 60 61 63 66 69 74 80 86 92 95 98 102 106 108 110 114 117 119 122 125 127 126
44 47 49 49 51 52 53 55 58 59 62 64 66 71 76 81 86 91 95 100 103 108 112 114 118 123 128 131 132 133 132 131
36 39 43 48 54 56 56 56 59 63 65 69 72 77 81 85 91 96 101 106 110 115 119 123 127 133 136 134 134 132 129 125
40 39 45 48 52 56 58 61 65 69 73 76 80 83 87 92 97 102 107 113 119 122 124 129 134 134 132 130 128 124 120 114
42 44 47 52 55 58 61 65 68 70 74 78 82 87 93 98 104 110 116 121 126 128 130 131 132 129 129 126 120 115 109 103
46 46 47 50 55 58 62 65 68 73 78 82 88 93 99 107 112 115 120 125 129 132 130 129 128 129 127 119 113 110 104 97
46 49 52 56 59 61 64 67 72 78 82 88 95 102 107 112 116 121 124 129 130 129 125 124 121 119 115 108 103 96 93 90
48 50 53 55 57 62 66 70 77 82 88 95 100 107 112 115 121 125 129 128 123 123 122 117 113 108 102 98 92 89 85 81
53 53 55 57 61 65 72 78 83 91 95 102 107 112 116 121 126 129 127 126 125 123 115 108 99 94 91 88 83 80 76 74
57 58 58 61 66 71 77 83 90 95 102 108 112 115 121 127 127 127 126 123 119 113 106 98 91 86 82 79 77 75 72 68
60 60 61 66 72 77 83 89 94 102 108 112 116 121 125 124 126 123 122 117 110 103 97 91 86 82 78 76 73 69 67 64
57 60 65 71 77 84 90 95 102 107 113 121 124 127 125 126 123 121 115 105 101 93 88 82 79 76 73 71 68 66 62 58
62 67 72 78 85 91 97 102 108 115 121 125 128 129 125 121 120 113 105 97 92 86 81 78 75 71 69 66 62 61 59 55
69 75 80 87 93 99 104 110 115 119 123 128 128 128 123 119 113 104 97 89 82 78 75 72 68 66 64 61 59 55 52 49

GFSFLT1_250_spd_015.txt.gz
Wind_Speed
58 49 47 45 45 40 36 43 45 54 56 64 69 73 68 71 68 67 69 70 71 74 76 74 73 74 75 77 78 80 81 82
46 45 43 41 48 35 40 46 55 59 61 65 68 74 77 74 71 72 74 75 76 76 75 76 76 77 80 81 82 85 89 91
45 46 45 42 39 45 49 54 57 59 64 69 72 72 73 73 75 77 77 76 77 79 79 79 81 84 88 89 91 92 95 98
41 43 46 47 50 54 56 56 56 58 58 62 66 69 72 74 74 75 77 80 81 82 85 89 91 93 96 100 102 104 105 108
38 43 46 46 47 46 49 52 53 54 58 62 65 69 72 73 75 79 80 81 86 90 93 96 100 104 109 112 114 117 117 118
44 45 46 45 46 48 50 51 54 58 61 65 68 70 72 77 79 82 84 87 91 97 101 106 110 111 115 118 120 120 121 122
36 38 39 39 40 47 51 53 56 60 62 65 69 72 74 77 79 83 88 94 98 103 109 113 116 119 122 123 124 125 124 123
39 42 41 42 47 50 53 55 58 61 64 67 70 73 76 80 85 91 94 98 102 108 113 116 121 124 125 125 124 123 123 122
44 46 49 49 51 52 54 56 59 62 66 69 72 75 79 83 88 94 99 105 109 115 120 124 125 125 125 123 123 122 121 120
43 45 47 49 52 55 58 61 63 65 68 70 75 78 83 87 93 99 106 111 115 119 124 127 127 124 123 120 121 119 117 113
45 47 49 51 54 57 60 62 64 66 68 72 77 82 88 93 101 107 112 118 122 125 126 125 126 122 121 119 114 110 102 98
47 48 51 54 56 57 59 61 64 66 71 75 81 87 93 99 106 111 117 122 123 126 125 121 119 117 117 111 105 101 94 89
50 51 52 55 57 59 61 62 65 70 76 82 88 94 101 107 114 120 125 125 126 124 118 116 114 111 108 102 97 91 85 80
55 54 54 56 57 59 60 64 70 76 83 90 98 104 109 113 120 126 126 124 122 117 115 111 107 103 97 92 88 82 79 76
58 57 56 56 57 60 65 71 78 85 92 99 105 108 114 118 124 128 123 119 116 111 106 103 98 93 89 84 81 77 74 71
58 60 59 60 63 68 74 79 86 93 100 105 109 114 120 125 130 126 123 118 112 105 102 96 90 86 81 78 75 73 70 68
58 60 63 66 70 75 81 86 92 100 105 110 115 121 126 132 129 125 120 115 106 99 94 89 84 79 75 74 71 69 66 64
60 62 65 70 76 80 85 93 100 105 110 115 121 125 132 133 127 123 119 112 104 93 85 81 77 72 70 70 68 64 61 58
63 67 72 77 80 85 93 99 106 111 115 121 126 131 132 126 124 118 112 105 96 89 82 76 71 68 67 65 63 58 55 53

GFSFLT1_250_spd_018.txt.gz
Wind_Speed
61 60 56 53 52 50 43 40 35 33 62 57 70 70 69 71 75 76 76 84 85 83 79 79 80 82 82 81 81 80 80 79
44 45 43 45 46 45 39 45 49 53 59 70 68 68 72 76 77 79 84 84 81 80 81 81 82 81 83 84 85 87 89 91
37 37 40 42 32 34 40 45 51 56 60 64 70 74 77 78 78 81 81 80 81 82 83 83 85 88 87 88 89 90 94 96
33 33 36 40 44 47 52 56 59 61 66 67 67 69 70 73 75 76 78 81 82 84 86 88 90 92 91 92 96 98 101 105
35 37 39 41 44 50 53 54 56 60 63 64 65 67 69 71 74 76 79 81 84 87 89 92 93 95 98 102 106 109 112 115
30 32 32 35 38 41 44 48 52 56 58 61 64 67 70 73 75 77 80 83 85 86 89 93 98 103 107 111 113 117 120 123
30 33 35 38 41 45 49 51 53 56 59 62 64 67 69 72 75 77 78 81 85 90 95 100 104 108 113 116 120 126 128 128
33 36 39 42 45 49 53 55 57 60 61 62 64 67 70 72 73 77 82 87 91 96 101 107 113 118 122 121 124 126 122 122
39 41 44 46 48 50 52 55 58 59 60 62 64 67 70 73 77 82 87 92 98 104 110 117 120 122 122 124 124 120 118 118
43 45 47 50 52 54 56 57 57 59 62 65 68 70 72 76 81 87 93 101 107 112 114 116 119 121 120 119 118 116 113 112
48 51 54 56 57 59 61 60 60 63 65 65 67 69 74 80 87 94 102 108 108 111 114 115 116 117 116 114 110 108 107 103
51 51 53 56 58 59 58 58 59 61 63 66 70 75 81 87 93 100 107 111 114 114 115 115 115 115 112 108 103 99 95 92
50 51 52 54 56 57 57 59 60 63 67 71 77 82 87 95 101 107 113 116 118 118 118 114 112 110 106 99 95 91 88 85
51 50 51 53 54 57 60 62 64 68 72 78 83 89 95 103 108 115 119 120 118 117 117 113 110 103 95 91 88 86 83 79
56 56 55 56 57 60 63 65 69 73 78 83 89 98 104 110 117 121 121 124 120 119 116 110 100 94 89 86 83 80 76 72
60 59 60 59 60 62 65 70 75 80 86 92 99 106 110 119 124 125 127 123 122 119 111 102 94 90 87 82 79 76 72 69
65 66 65 63 63 66 72 78 83 88 93 99 107 111 118 124 125 126 121 123 121 115 106 95 89 86 82 78 75 72 68 64
72 73 70 68 69 74 81 86 90 95 101 107 111 117 124 127 127 124 123 120 115 110 100 93 86 81 76 73 72 69 64 60
75 76 75 74 77 82 87 91 95 102 107 113 117 123 126 127 125 125 123 118 110 101 95 89 84 78 73 71 69 66 62 56

GFSFLT1_250_spd_021.txt.gz
Wind_Speed
46 48 48 47 47 49 47 44 43 25 51 47 55 56 58 61 65 67 73 84 88 95 92 94 92 88 87 83 84 83 83 83
44 46 46 45 43 42 40 37 41 40 52 53 57 63 70 73 76 81 85 89 93 95 94 90 88 85 86 86 87 88 89 89
40 39 38 39 38 40 40 40 44 45 54 58 61 65 69 74 79 84 86 88 88 88 85 85 88 89 89 89 89 89 89 89
34 34 33 35 34 35 39 42 47 49 54 60 64 66 69 72 75 77 78 79 81 84 85 85 86 88 90 90 91 94 98 102
26 28 30 32 34 36 39 41 45 48 52 55 58 62 66 69 72 74 76 77 79 81 83 85 87 88 90 93 97 103 108 112
24 25 28 30 33 36 40 42 45 48 51 54 58 61 64 66 68 71 73 75 78 79 81 83 86 90 95 101 107 111 113 114
27 30 33 36 39 43 46 48 51 53 56 59 61 63 64 66 68 71 73 75 76 76 80 87 92 98 104 110 113 115 115 117
32 35 38 42 45 48 51 54 56 58 60 61 63 65 67 68 69 70 70 72 78 83 89 94 99 104 108 112 114 116 115 114
35 38 42 45 48 49 51 54 55 57 58 59 60 60 62 64 67 70 75 80 85 88 93 101 106 112 112 113 114 114 111 109
37 40 43 46 48 49 50 52 53 54 55 57 61 64 66 69 72 76 81 86 88 96 102 105 113 113 115 113 111 112 107 105
39 42 43 46 48 50 52 54 56 57 57 58 62 64 67 71 75 79 85 91 97 103 108 112 112 111 110 111 109 104 100 97
41 44 47 50 52 54 56 58 59 60 61 61 64 66 71 76 80 86 91 97 104 107 110 111 110 111 112 108 100 97 92 89
45 44 45 48 51 55 56 57 58 60 61 63 68 73 79 83 89 93 99 105 109 109 111 111 113 114 108 101 95 91 87 82
51 52 53 54 58 59 59 57 57 58 63 69 75 81 85 90 96 102 106 108 111 113 114 114 117 111 103 95 90 84 81 78
57 59 61 62 64 67 66 64 63 66 69 76 81 86 92 97 104 107 109 114 113 113 115 117 115 107 95 89 83 80 77 75
62 65 66 66 68 72 71 68 69 73 78 84 88 93 99 104 109 111 115 113 114 116 117 116 108 97 90 85 81 78 75 73
67 69 71 71 73 76 76 74 76 81 85 91 95 100 106 111 113 116 114 115 116 116 116 111 102 93 85 80 78 75 72 70
71 73 74 76 78 80 78 79 83 87 93 97 102 107 111 114 116 115 114 117 117 116 112 103 95 89 82 78 75 73 71 67
74 75 76 79 82 82 81 83 87 93 99 103 108 112 114 115 114 114 115 115 116 112 106 97 91 85 79 76 74 72 68 64

GFSFLT1_250_spd_024.txt.gz
Wind_Speed
45 48 50 50 51 52 52 51 51 47 46 47 46 54 50 55 58 64 71 76 83 85 90 93 96 98 99 98 95 91 88 87
43 43 43 44 45 46 47 46 44 43 44 50 57 58 66 65 67 71 77 81 84 89 93 95 93 91 90 88 91 89 90 89
40 39 39 39 40 39 37 36 38 40 42 48 52 56 59 66 72 77 81 84 86 84 83 85 86 88 87 88 89 89 89 86
34 33 34 35 35 36 36 37 39 41 43 46 50 55 59 63 66 69 73 76 79 81 83 84 85 85 87 87 87 86 89 93
28 27 26 26 27 29 33 36 39 43 47 51 54 58 61 66 69 72 75 77 79 81 82 83 84 84 82 83 88 93 95 100
17 18 22 25 30 34 37 41 44 47 51 55 59 62 66 68 71 73 74 75 75 75 76 76 78 81 85 90 94 97 104 109
19 24 28 31 34 37 40 44 48 52 55 58 61 64 65 66 67 68 67 67 67 69 73 78 83 87 91 95 100 106 110 115
25 27 30 33 36 39 41 44 46 49 51 54 57 59 62 64 64 65 66 68 71 76 81 84 86 90 96 101 106 110 112 113
24 28 31 35 38 40 42 45 47 50 52 54 56 59 61 63 64 66 68 71 75 80 84 88 92 99 103 107 109 109 110 110
27 29 33 37 39 41 44 46 49 51 53 56 59 61 62 63 64 67 71 76 81 86 89 94 99 104 108 109 109 108 111 110
27 32 34 39 42 45 48 51 54 55 58 60 59 59 60 62 65 70 76 82 87 91 96 100 105 107 108 108 108 111 109 105
36 41 44 48 50 54 56 58 60 61 63 66 66 64 64 67 72 79 85 89 94 97 101 104 104 106 108 108 110 109 105 101
39 44 48 52 54 59 63 65 66 65 66 68 68 67 69 74 79 86 92 96 100 103 103 101 104 106 108 108 108 106 100 93
45 48 52 56 60 64 67 70 70 70 70 71 69 70 75 80 87 93 98 101 106 108 104 103 105 107 109 110 106 99 91 86
50 52 56 61 64 68 71 74 72 73 74 75 74 77 81 87 93 99 103 106 109 109 105 105 109 110 108 106 99 91 85 81
54 57 61 64 68 72 76 77 76 77 79 79 80 83 88 93 99 104 107 111 110 107 106 108 110 110 106 100 91 84 80 76
58 63 66 70 74 78 79 79 81 83 84 83 85 89 94 100 105 109 112 110 108 107 108 108 110 106 103 95 86 81 76 72
65 70 74 76 79 81 82 84 85 84 84 86 90 95 100 106 110 113 114 109 109 108 110 110 107 104 98 88 82 77 73 71
71 74 77 80 83 85 86 87 84 86 88 92 96 101 106 110 113 113 109 109 108 109 109 109 104 101 91 84 79 74 72 70

GFSFLT1_250_spd_027.txt.gz
Wind_Speed
34 37 41 49 55 60 61 61 62 63 63 61 62 61 63 65 65 67 71 73 75 78 82 82 87 89 92 94 99 101 94 91
45 47 46 48 51 53 54 55 55 56 58 60 61 61 63 68 69 71 73 75 79 79 82 87 91 93 96 97 93 90 90 90
41 43 45 45 47 48 48 48 48 45 46 47 51 51 53 54 56 62 70 71 72 75 80 81 82 86 89 89 89 90 89 86
39 39 40 40 39 39 37 36 34 35 37 40 43 47 51 55 59 64 69 72 76 79 82 86 88 88 88 87 83 80 82 85
33 33 32 29 27 26 27 29 35 39 42 46 50 54 57 62 64 67 69 73 76 77 77 79 79 77 74 76 81 83 87 91
23 23 20 21 23 27 31 35 39 42 45 48 49 50 51 53 57 60 64 65 67 69 69 69 69 72 76 82 86 92 98 102
17 16 19 23 27 31 34 38 41 43 46 49 51 51 52 55 59 62 64 66 65 63 65 68 72 77 82 90 94 98 101 105
15 18 21 25 28 31 33 35 38 42 46 50 54 55 58 59 61 60 62 64 64 64 69 74 79 85 92 97 99 102 106 108
16 19 21 23 26 31 36 40 44 47 50 54 56 57 59 61 63 67 68 67 67 70 76 81 88 94 99 103 104 108 108 105
19 22 25 30 35 37 42 44 47 51 56 61 64 66 66 66 69 72 73 70 71 75 81 88 94 100 104 106 109 108 106 104
26 29 31 34 37 42 45 48 52 56 61 66 68 69 70 71 73 76 74 73 77 82 88 95 101 105 108 110 108 107 107 107
31 33 36 38 42 44 50 53 57 61 65 69 72 72 72 74 76 76 76 79 83 89 95 101 106 108 111 109 106 109 108 107
37 38 41 42 46 49 55 59 64 68 72 75 75 77 78 77 77 78 81 86 91 96 101 106 109 111 110 107 108 108 109 106
42 44 48 51 53 56 61 66 71 74 77 79 81 80 81 80 82 85 88 93 98 102 106 110 112 111 110 108 107 106 105 101
45 48 52 58 61 64 68 73 76 79 81 83 83 81 81 81 87 92 95 99 103 107 110 111 108 108 108 107 107 105 99 96
48 50 56 62 67 71 75 77 80 83 85 85 82 82 83 87 93 98 101 105 110 112 112 109 107 108 110 108 106 99 97 92
54 58 63 68 71 76 77 79 83 86 85 82 84 84 89 93 99 102 106 110 111 110 107 106 107 111 112 106 100 98 92 89
59 64 68 71 73 75 79 84 85 82 82 84 85 90 95 100 103 107 112 107 105 105 106 106 110 107 107 101 97 94 89 83
63 65 68 72 75 80 85 84 82 83 85 87 91 96 101 104 108 112 104 101 103 105 108 110 110 101 100 97 92 89 84 75

GFSFLT1_250_spd_030.txt.gz
Wind_Speed
27 25 33 45 47 54 62 67 70 80 80 81 81 81 81 81 80 80 77 72 72 75 78 80 83 82 86 87 87 88 88 86
32 42 46 46 49 60 60 61 59 64 69 73 74 73 72 70 69 66 65 64 66 68 71 75 79 81 82 84 84 81 80 77
38 39 46 50 49 50 56 58 58 56 56 57 58 57 56 55 55 57 60 65 69 71 74 75 75 76 76 74 72 69 69 70
44 47 48 50 49 48 47 47 45 44 46 45 43 44 46 50 53 58 61 63 65 66 68 69 70 71 71 69 67 67 68 73
41 43 41 39 38 38 37 34 33 33 35 38 40 43 46 50 52 56 58 62 64 65 66 67 69 71 72 71 71 73 77 80
35 34 32 32 29 27 28 28 29 33 35 38 37 37 41 47 50 53 57 59 62 64 67 69 70 70 71 73 77 80 85 91
29 27 25 23 24 24 25 27 28 30 35 37 40 46 49 54 57 61 63 64 63 63 67 70 71 73 75 77 81 87 93 99
24 22 24 23 23 23 25 29 32 37 40 44 47 51 55 59 64 67 69 68 68 69 71 71 73 76 80 85 91 97 102 107
24 22 22 23 25 27 31 34 38 44 45 48 51 57 61 65 69 72 74 74 73 72 71 73 78 84 90 94 98 102 108 112
23 24 25 28 30 34 37 41 43 49 50 52 57 63 68 72 75 77 81 79 77 75 75 79 86 93 97 102 107 110 110 110
26 28 31 33 36 39 42 45 47 55 58 60 66 70 75 78 81 83 84 81 80 79 83 88 93 99 104 107 111 109 105 105
30 33 37 40 42 45 50 53 52 60 64 68 72 77 80 82 85 87 85 82 81 83 89 94 100 104 108 111 109 107 107 106
35 39 40 44 48 50 55 59 61 65 71 75 79 82 83 86 88 85 81 82 84 89 94 101 104 107 110 107 103 105 108 108
41 43 47 50 51 51 54 60 66 70 76 80 80 82 86 88 85 83 85 87 92 96 101 104 107 109 105 103 103 106 109 107
46 47 48 52 55 57 60 64 70 75 76 78 82 87 88 86 84 85 89 93 97 101 104 107 107 104 104 105 103 104 107 106
49 54 52 51 54 58 62 66 67 73 76 82 87 90 87 86 86 92 96 100 103 105 107 109 103 104 108 106 106 102 99 99
52 55 60 60 62 65 64 68 72 77 82 86 89 89 87 88 92 98 102 105 109 109 106 102 105 107 110 111 110 108 99 94
58 62 65 69 69 64 67 73 76 81 86 91 93 89 90 94 99 103 106 110 112 106 103 105 105 108 109 111 103 99 96 90
62 66 67 67 69 70 77 80 82 87 92 94 92 91 94 99 105 110 113 112 109 107 106 107 108 112 113 99 95 96 92 87

GFSFLT1_250_spd_033.txt.gz
Wind_Speed
41 41 50 49 50 63 74 76 76 79 75 78 80 82 88 92 90 93 95 91 88 93 92 87 83 79 77 80 80 80 80 80
35 29 34 37 39 38 44 62 70 67 68 71 79 83 86 83 83 84 81 81 82 79 73 75 77 77 76 77 77 75 75 77
38 36 33 41 43 47 49 50 57 64 66 66 69 73 75 77 74 72 69 65 64 65 66 67 69 72 73 74 74 76 79 81
34 34 41 42 44 45 47 54 58 58 61 64 67 67 64 60 57 56 54 52 53 56 59 61 64 68 71 72 74 76 76 77
33 35 38 40 43 45 50 54 57 55 55 53 51 49 47 49 47 47 48 50 53 57 61 67 70 73 76 77 78 75 76 76
37 38 37 39 40 41 43 45 45 43 42 42 42 42 40 41 45 47 51 55 62 67 71 74 78 80 80 79 78 78 79 84
29 31 33 32 33 34 36 36 39 39 39 40 40 41 41 44 47 51 55 61 65 70 75 79 84 85 80 79 77 80 86 90
29 35 35 30 29 30 34 35 37 39 41 42 43 44 45 49 52 58 63 69 72 76 80 84 87 81 79 80 84 90 96 101
33 30 27 28 30 32 33 35 39 43 46 47 49 53 55 58 63 67 72 78 80 82 87 90 86 81 82 88 93 97 101 106
27 26 30 30 32 34 36 39 44 49 54 56 58 60 61 64 69 74 80 81 82 88 91 90 86 83 88 93 99 105 109 111
29 27 29 33 35 37 39 41 46 52 58 61 64 64 68 71 76 79 79 83 88 92 90 87 85 89 94 100 104 110 111 108
33 32 32 35 39 43 46 47 49 55 59 62 65 67 70 73 74 77 83 87 92 94 90 87 90 94 100 106 109 111 108 104
33 34 36 40 44 47 51 51 50 53 57 61 65 67 69 73 77 83 86 91 94 91 89 91 95 101 107 111 110 105 103 101
35 37 39 42 45 49 51 55 57 61 65 68 68 66 73 78 82 86 92 95 93 91 92 97 102 106 110 111 106 103 103 103
37 38 40 43 46 50 54 58 62 67 69 67 67 74 79 84 87 92 97 94 93 95 98 104 109 111 108 106 104 104 105 107
45 44 46 49 51 54 57 61 61 64 68 71 76 82 83 88 92 98 95 95 97 102 107 110 109 106 106 105 105 105 105 104
51 53 52 53 59 63 63 62 64 68 74 80 84 87 89 93 97 97 97 99 104 110 114 112 106 100 99 103 107 108 106 101
55 58 59 59 62 66 68 68 71 76 81 84 88 91 94 97 97 98 101 106 111 115 112 108 105 105 108 109 107 104 102 99
55 59 64 68 69 69 73 77 80 84 87 90 92 96 97 96 98 102 107 111 116 114 111 108 107 109 106 105 105 100 99 98

GFSFLT1_250_spd_036.txt.gz
Wind_Speed
48 44 43 55 49 55 58 55 64 76 76 76 75 76 75 73 74 76 78 82 80 83 85 86 77 77 73 72 70 72 73 75
59 50 48 45 55 51 49 52 57 61 66 77 81 80 76 74 79 80 81 80 79 80 80 83 79 70 68 69 69 72 75 79
52 49 49 52 55 51 47 47 51 55 61 62 64 70 68 75 79 79 81 79 79 77 79 72 67 67 66 69 73 75 79 85
39 46 42 41 43 48 46 43 48 52 55 57 60 62 64 68 72 75 74 72 70 69 66 64 64 67 71 73 76 80 85 89
35 37 39 41 40 42 44 48 53 56 58 59 60 62 61 61 63 64 65 62 63 60 59 63 68 73 77 79 81 86 91 90
34 33 35 40 42 43 45 45 47 51 53 52 52 52 53 56 58 57 61 60 60 63 64 69 74 78 80 82 87 91 92 89
38 35 34 30 31 28 34 37 44 45 45 46 47 50 52 53 57 59 59 62 66 68 72 75 79 81 82 87 92 96 96 91
38 35 32 27 29 35 39 41 43 41 43 45 47 49 53 56 58 61 65 66 65 69 73 76 78 81 85 90 96 97 92 91
33 32 32 32 34 30 32 38 40 42 45 48 50 52 54 58 60 63 65 67 69 71 72 77 82 86 89 95 95 93 92 95
30 30 32 33 29 32 35 38 42 45 49 51 54 55 56 58 60 64 67 70 71 70 77 84 87 90 95 97 95 95 98 102
31 32 34 38 36 34 34 38 43 48 51 54 56 55 55 59 66 70 70 69 72 78 82 86 90 96 97 95 96 100 105 110
28 33 34 36 38 39 39 42 46 49 53 56 60 62 63 66 66 67 70 75 79 83 86 90 96 97 96 98 102 108 112 111
30 32 34 37 40 41 41 44 48 52 56 60 63 65 63 66 71 74 78 81 85 88 90 96 97 97 99 104 108 110 108 105
29 32 35 38 40 45 48 50 54 58 62 64 66 65 65 70 75 80 84 87 90 92 97 96 96 98 104 108 111 107 104 103
33 34 36 37 42 47 50 52 55 59 64 66 67 67 69 75 80 85 88 91 94 95 95 95 99 105 107 108 107 105 104 104
36 37 41 43 47 49 51 54 57 62 65 66 68 71 76 81 85 86 92 95 94 94 95 101 105 108 111 108 106 106 106 108
40 44 46 48 50 51 55 59 62 60 62 68 73 77 81 86 88 91 97 97 96 98 103 105 110 114 110 107 108 110 109 109
48 49 50 53 55 57 61 65 64 66 69 74 79 84 87 89 90 98 99 96 99 106 109 113 116 114 111 111 111 110 107 103
53 56 57 60 61 63 65 67 71 74 77 82 86 90 89 91 98 99 98 100 106 109 114 118 117 114 113 113 112 109 104 99

GFSFLT1_250_spd_039.txt.gz
Wind_Speed
44 48 51 50 48 53 55 57 62 60 60 63 67 65 67 74 76 80 80 81 78 79 81 80 78 73 74 75 73 74 71 73
45 43 51 53 54 54 51 51 51 57 61 67 69 68 67 65 70 77 73 76 79 77 73 71 71 69 70 72 74 70 73 76
47 46 49 47 43 49 48 51 57 57 57 62 65 65 60 59 59 64 69 70 72 72 72 71 71 71 74 73 73 75 78 81
48 52 50 55 55 51 54 52 54 56 62 61 61 61 59 62 64 69 72 71 70 69 69 71 73 74 75 77 78 81 84 87
35 39 47 51 58 54 51 51 54 55 58 60 60 60 62 64 66 67 63 62 63 66 69 72 75 75 75 78 79 82 84 84
32 33 36 36 38 43 45 45 49 51 53 55 56 54 54 57 56 55 57 61 64 69 72 74 75 74 75 77 79 79 83 88
31 33 33 36 36 39 41 43 43 41 41 46 48 48 51 51 53 56 60 64 67 70 69 69 71 74 76 74 78 83 88 91
33 35 36 38 39 39 36 30 34 40 45 47 47 49 52 52 54 59 62 65 66 66 68 72 71 71 75 79 83 87 90 92
33 33 38 33 33 29 29 35 38 37 42 45 48 51 52 56 56 59 61 64 67 68 67 68 72 76 80 84 88 91 93 94
32 30 28 24 22 29 34 38 39 42 48 49 50 52 54 57 58 60 63 67 69 67 69 73 78 83 84 88 92 93 92 94
26 26 26 28 30 36 38 41 46 48 49 51 52 53 54 57 59 63 67 68 67 70 74 78 82 83 90 95 93 93 95 99
26 26 27 28 29 32 39 44 47 48 48 48 51 53 55 58 61 65 68 70 71 75 78 82 84 88 96 94 92 96 103 105
27 27 27 29 33 38 41 43 44 45 48 52 54 56 60 63 67 66 67 71 75 79 82 84 89 95 94 93 94 101 103 108
28 28 31 33 37 40 41 44 47 52 53 58 59 62 65 68 66 68 73 78 82 86 87 88 95 96 94 96 101 104 108 110
28 30 32 36 39 39 40 46 53 57 60 61 63 66 67 67 70 76 81 84 86 89 90 94 99 95 97 102 104 109 113 110
31 32 35 38 39 39 47 53 56 61 61 64 66 68 69 73 76 81 85 88 90 91 93 99 98 99 104 105 109 114 114 113
35 36 38 40 43 46 50 55 59 62 65 66 69 70 73 76 81 85 88 91 91 94 99 99 101 105 107 111 116 119 116 114
37 39 42 45 49 52 55 57 61 64 66 68 70 73 78 82 86 89 92 94 95 98 99 101 105 109 112 116 119 118 117 117
41 44 48 51 53 55 59 62 65 67 68 71 74 79 83 87 90 92 93 96 99 102 101 105 108 112 116 118 120 121 118 116

GFSFLT1_250_spd_042.txt.gz
Wind_Speed
37 40 38 43 43 46 55 59 58 62 64 61 61 64 65 62 63 69 69 72 77 78 76 75 75 73 74 74 68 69 69 71
41 37 38 43 44 46 45 51 51 54 57 62 59 69 68 68 71 68 71 75 69 67 70 74 74 73 68 67 70 72 74 77
46 37 39 40 41 44 49 52 56 57 58 60 55 55 59 61 63 63 65 65 68 72 71 69 68 66 68 70 73 76 78 77
38 39 38 41 43 45 46 51 55 55 51 56 60 59 58 59 62 66 67 66 67 66 65 65 64 67 69 72 75 76 75 77
38 37 42 44 45 48 49 50 51 49 55 54 55 55 55 59 60 58 59 61 61 61 63 64 66 69 72 74 74 76 78 74
28 26 30 36 39 40 39 40 41 44 47 49 51 53 53 50 50 53 55 58 59 61 64 66 68 71 72 74 76 75 76 79
24 25 28 30 33 38 40 39 38 42 42 42 42 42 47 49 51 52 53 57 61 64 66 68 69 72 74 75 74 76 80 83
31 32 35 39 39 41 40 41 42 43 42 38 40 44 50 49 51 55 57 60 63 65 66 67 70 72 73 73 75 80 83 85
37 39 37 37 39 42 42 41 37 36 34 36 41 46 49 52 59 59 61 62 62 64 67 69 68 68 73 78 81 83 84 86
37 37 40 43 42 35 31 29 28 31 36 42 45 47 52 57 61 61 60 61 63 65 68 67 69 73 79 82 83 85 89 91
42 42 39 32 30 27 28 30 33 36 39 42 46 49 55 57 57 58 59 61 65 69 69 71 75 79 82 84 87 88 92 96
40 36 32 31 30 29 29 30 32 36 41 46 49 51 53 54 59 62 62 65 69 70 70 75 79 82 85 88 90 93 96 98
35 31 30 29 28 30 29 32 34 37 42 46 46 47 53 59 62 64 67 69 72 75 75 79 83 86 89 92 93 96 100 99
32 31 28 26 31 30 30 33 37 40 43 49 48 52 61 64 67 68 69 72 74 77 82 84 87 91 92 95 97 101 101 103
32 30 28 30 31 31 33 36 40 44 47 52 53 60 63 67 69 69 72 74 76 81 86 89 92 95 97 99 101 104 106 109
30 29 32 32 32 34 37 40 45 48 51 56 61 64 68 70 71 73 76 78 81 85 90 94 98 100 101 103 106 108 108 113
33 34 35 35 37 39 43 47 49 53 58 63 66 68 71 74 76 77 79 82 86 89 92 97 98 101 103 106 108 108 112 117
37 36 36 38 41 44 47 50 54 58 63 65 68 71 74 76 79 81 83 87 92 95 99 100 102 105 106 109 109 111 116 120
40 40 41 44 46 48 51 56 61 64 65 67 70 74 76 79 81 84 87 92 97 97 100 103 106 108 110 110 112 117 120 119

GFSFLT1_250_spd_045.txt.gz
Wind_Speed
33 34 39 39 48 51 54 61 54 51 57 59 59 58 54 51 51 56 58 62 65 69 72 73 72 74 73 72 69 68 65 63
30 24 33 34 37 43 57 57 56 56 53 56 54 55 59 66 67 65 66 59 58 62 70 69 71 73 71 66 65 64 65 67
31 28 27 28 34 37 41 50 55 53 54 56 54 56 56 56 59 65 67 67 70 66 68 70 70 65 62 62 63 64 67 69
31 30 28 30 31 34 37 39 42 43 43 47 50 55 55 60 62 59 62 62 67 68 66 63 62 61 60 61 65 67 69 72
26 28 33 39 35 34 38 39 44 49 49 52 53 52 56 60 66 64 63 61 63 57 58 58 59 62 63 64 68 70 72 72
30 33 34 35 41 42 40 39 40 40 42 45 48 50 51 51 52 52 50 49 51 53 54 60 63 65 67 69 69 71 73 70
26 27 28 27 28 29 29 30 34 37 40 41 45 47 47 46 45 44 47 49 51 54 60 63 67 69 66 68 71 72 70 73
21 21 24 26 29 32 34 36 38 40 43 44 43 40 40 42 42 45 50 53 53 58 62 66 67 68 70 71 72 72 75 79
29 29 30 30 33 36 37 38 38 41 36 36 32 36 39 42 46 51 55 55 59 61 62 66 69 68 71 74 74 76 80 83
27 28 29 31 34 38 40 41 42 41 36 32 37 39 43 45 49 54 57 61 63 64 64 69 69 71 72 74 75 79 84 84
30 32 33 35 37 38 38 34 35 34 33 33 37 40 43 47 50 51 58 61 62 64 73 73 74 73 73 76 80 82 87 89
36 37 39 38 36 35 33 34 34 33 34 34 35 36 41 44 47 55 60 66 66 73 75 76 76 76 76 80 84 86 89 93
39 39 40 38 36 34 33 33 31 30 30 34 36 37 43 48 55 58 64 65 70 75 78 79 81 82 81 86 90 92 92 96
42 42 37 35 33 31 33 35 31 33 35 37 39 45 49 53 56 63 66 69 73 76 80 84 86 86 86 89 93 95 98 101
44 38 31 30 31 34 37 37 37 39 40 41 46 51 54 58 62 65 69 73 76 79 83 85 88 90 91 92 94 98 101 103
31 32 34 33 34 37 39 40 42 43 44 48 52 56 59 62 65 69 73 76 79 82 85 86 88 91 94 97 100 103 105 108
37 35 35 35 38 40 43 45 46 48 50 53 56 59 62 65 69 74 77 79 82 85 86 89 92 95 99 102 103 107 108 112
40 41 39 39 41 43 46 48 50 51 53 55 59 63 67 70 74 77 79 82 86 86 88 91 95 98 102 105 109 110 112 115
42 44 45 45 46 46 47 49 50 52 56 61 65 69 71 74 77 80 83 85 86 89 91 95 98 102 104 108 110 111 113 116

GFSFLT1_250_spd_048.txt.gz
Wind_Speed
18 23 25 28 29 36 45 50 47 52 56 47 45 38 39 50 51 51 52 55 57 58 61 65 70 71 71 71 71 72 73 69
12 19 24 31 32 32 40 46 55 48 52 57 56 48 51 56 55 56 61 63 67 68 72 72 71 68 67 66 70 69 69 65
24 21 18 27 33 30 36 46 47 53 55 58 58 61 51 54 59 67 69 65 66 68 66 67 66 69 69 70 68 63 62 61
29 25 27 22 22 22 27 35 43 52 58 62 62 62 64 65 61 64 64 58 59 62 64 67 67 68 68 64 61 61 63 66
29 30 29 31 33 29 31 32 34 41 43 42 48 51 57 57 58 60 61 61 62 62 64 65 64 59 58 59 63 64 68 69
26 25 31 32 31 36 37 35 38 38 43 46 46 46 50 52 54 55 55 57 57 59 59 57 56 59 58 62 66 67 68 72
20 25 28 29 33 34 34 38 36 37 39 44 46 48 47 47 48 50 52 53 51 54 52 55 57 59 62 67 70 68 72 75
18 21 23 25 29 30 30 30 33 36 36 37 39 40 42 46 46 47 45 46 48 52 55 56 59 61 65 67 67 73 75 77
23 22 23 25 29 31 32 33 35 35 35 37 40 37 34 38 44 43 45 49 53 56 57 58 60 61 68 69 74 76 78 78
27 27 28 30 32 35 36 35 35 37 39 41 37 32 37 42 43 48 50 52 52 57 60 60 63 67 72 74 78 81 82 83
27 27 30 32 34 34 34 34 39 43 42 40 39 39 41 44 48 49 49 50 53 58 61 64 67 73 79 81 83 81 85 88
33 33 32 33 33 34 38 41 40 40 40 41 41 41 43 45 45 47 49 54 57 60 63 66 71 77 82 83 87 87 89 90
37 36 36 35 37 40 42 43 41 40 41 42 45 45 43 44 46 49 53 55 61 63 68 71 78 81 83 85 88 92 95 96
41 43 41 43 43 43 41 40 40 42 42 43 44 43 44 47 49 52 56 62 64 68 72 76 80 83 86 88 90 92 96 99
46 47 46 42 42 41 40 40 42 44 44 45 46 48 49 51 54 58 62 66 70 74 76 78 83 86 89 92 94 97 101 102
35 35 38 38 38 41 41 41 44 46 44 48 48 50 53 56 59 63 68 71 74 76 79 82 87 91 94 95 98 101 102 105
36 37 36 39 42 44 39 42 43 46 50 53 55 56 58 61 64 68 71 74 76 79 83 87 91 94 96 100 100 101 103 106
41 40 41 42 43 44 43 43 45 48 50 53 57 60 62 64 67 70 72 76 80 83 87 90 93 96 98 99 100 102 105 107
38 39 41 44 45 46 48 48 49 50 51 52 55 58 61 64 68 72 76 80 83 86 87 91 94 95 96 99 102 104 105 107

GFSFLT1_250_spd_051.txt.gz
Wind_Speed
17 20 20 15 22 26 19 46 56 62 66 58 61 50 55 59 45 53 50 53 57 57 60 61 64 63 64 70 77 75 77 73
16 18 19 14 26 20 28 27 37 39 47 47 52 57 46 45 49 50 49 55 57 61 69 68 68 70 76 78 73 70 70 69
18 17 24 29 28 30 25 33 38 42 48 50 47 50 55 52 58 59 56 58 58 58 62 68 75 74 67 70 71 68 66 74
31 29 26 22 24 26 28 30 38 37 47 51 51 51 51 59 59 61 65 67 69 67 71 67 72 73 71 69 72 68 67 67
33 33 30 28 26 29 27 25 26 30 45 48 58 56 57 58 60 60 62 65 65 75 79 73 69 68 71 70 69 69 66 66
29 35 35 33 31 34 30 30 27 28 30 34 37 43 49 51 55 58 64 65 67 67 63 65 68 68 66 66 66 65 66 66
24 27 30 29 31 32 31 33 37 36 37 39 42 45 49 53 56 58 58 60 60 62 62 61 60 62 62 63 64 65 65 69
25 26 26 32 35 33 33 32 31 35 37 37 42 46 45 45 49 53 55 56 56 56 54 55 56 61 64 65 65 66 69 73
26 30 26 26 27 30 31 30 30 31 27 35 39 42 49 47 49 52 52 51 49 49 51 58 62 65 67 68 67 69 74 79
28 28 30 30 31 32 33 32 34 35 34 41 35 42 52 49 48 51 48 43 49 54 58 62 64 66 66 67 71 74 79 82
29 30 31 32 33 34 35 36 38 40 41 43 48 54 53 50 48 46 46 50 56 59 63 63 62 65 68 72 76 78 81 85
31 32 34 35 34 34 35 35 39 41 42 44 46 48 49 49 49 48 51 55 60 63 62 62 64 68 72 75 80 81 86 90
39 39 40 40 40 40 39 39 39 41 45 48 49 45 48 48 51 53 54 58 60 62 63 65 67 72 77 82 84 88 89 93
39 38 41 44 43 44 43 43 45 46 47 48 47 46 44 47 50 53 56 58 61 63 65 69 73 76 79 83 88 90 90 94
43 42 42 44 47 47 46 46 45 46 44 43 44 44 47 49 53 55 57 60 64 67 69 71 76 79 83 86 87 90 94 96
41 39 39 40 39 39 40 41 41 42 44 43 42 45 45 50 54 57 60 64 66 70 73 76 79 82 84 86 89 92 95 98
35 36 38 37 37 40 41 41 44 45 46 46 49 51 53 55 56 59 62 67 70 74 76 78 80 83 86 89 91 94 97 97
38 39 40 40 40 40 40 41 44 47 47 48 49 51 52 53 53 56 58 62 66 69 73 77 81 84 88 91 93 94 93 97
39 41 44 43 41 41 40 40 41 42 43 43 43 44 46 49 52 55 59 62 67 71 76 80 84 87 91 91 90 92 95 99

GFSFLT1_250_spd_054.txt.gz
Wind_Speed
15 13 15 14 20 28 40 53 60 62 63 58 53 55 54 60 57 64 59 58 58 61 62 62 59 61 62 65 69 72 80 77
18 23 20 15 15 16 31 35 56 56 54 66 55 51 40 46 42 43 48 54 60 56 57 60 64 65 67 71 71 72 71 75
25 19 21 23 19 18 22 23 20 31 51 46 45 49 52 44 46 50 46 56 57 62 61 63 65 67 67 69 74 76 79 84
20 24 27 23 24 25 30 32 36 35 37 41 40 43 45 44 45 50 54 59 61 66 68 70 73 72 75 79 81 81 78 80
28 29 28 27 30 34 34 33 34 38 40 44 45 45 50 53 52 55 58 60 65 66 66 67 67 72 75 77 79 74 75 74
32 34 38 36 29 27 26 28 27 23 26 38 50 50 51 56 59 62 60 64 63 65 67 67 71 73 74 78 76 73 75 73
25 26 32 38 40 34 30 29 29 27 30 30 31 34 39 47 53 56 57 59 59 61 64 67 72 72 73 73 70 70 69 70
23 25 23 29 33 33 32 30 30 33 32 33 36 39 38 42 46 47 50 59 60 59 61 64 64 66 66 67 68 67 70 73
28 25 29 28 30 36 40 42 39 36 32 33 36 37 34 28 38 45 41 45 46 51 57 58 59 63 63 65 66 71 74 78
27 26 29 31 34 33 32 31 31 33 35 34 35 35 29 26 42 42 40 48 49 56 58 56 61 63 65 68 72 74 74 74
31 33 32 30 33 36 37 36 36 33 35 37 39 40 43 43 46 49 61 61 61 52 50 58 64 68 70 73 74 75 75 77
35 37 35 33 31 33 37 38 35 29 27 35 37 41 48 49 54 60 60 64 60 58 59 60 64 69 73 78 78 78 81 84
37 40 40 38 38 36 40 42 39 33 29 34 45 48 50 50 48 53 58 56 59 59 61 63 67 71 75 77 77 80 84 86
35 36 38 39 39 40 41 44 48 42 31 41 47 52 49 49 50 54 57 54 56 59 60 61 64 67 70 74 80 82 86 89
31 33 34 37 38 40 40 41 43 40 40 45 53 54 53 50 51 52 55 56 56 55 58 62 65 68 72 75 78 80 83 85
37 32 30 30 33 35 37 36 36 37 36 39 42 45 46 49 52 54 55 58 60 63 63 64 64 65 66 67 71 75 80 85
39 38 31 35 33 33 34 34 35 36 38 43 45 47 49 51 54 57 58 59 58 57 56 57 59 62 65 69 74 80 83 85
34 38 33 34 37 34 38 36 41 43 44 44 47 47 48 47 46 47 48 50 52 55 58 61 63 66 68 71 74 80 83 92
31 31 33 30 36 39 43 43 42 43 44 45 45 45 46 47 49 51 54 56 58 60 62 64 64 66 69 76 80 84 89 92

GFSFLT1_250_spd_057.txt.gz
Wind_Speed
15 12 20 28 33 38 44 49 54 58 59 63 57 59 54 58 59 61 61 62 61 55 52 53 53 52 57 62 62 64 62 69
17 15 17 23 31 35 38 47 55 58 58 60 63 60 58 55 55 51 55 62 66 59 54 59 62 67 68 67 69 69 74 74
25 18 20 22 24 23 31 38 55 57 59 56 61 62 65 59 56 51 50 47 55 58 64 60 60 60 63 66 67 67 67 72
22 23 26 27 24 26 23 19 27 28 41 48 55 58 62 62 53 53 51 49 53 53 57 61 59 60 62 64 67 70 76 76
20 24 24 25 27 26 27 26 26 34 27 29 29 37 42 45 49 48 50 54 52 52 53 60 58 63 64 69 71 72 75 76
31 26 29 32 32 31 29 31 32 35 40 39 43 38 45 48 49 52 51 55 55 58 56 62 65 62 64 64 65 67 71 74
23 31 32 32 37 35 32 33 33 33 34 34 33 39 39 46 50 53 57 57 61 59 60 60 61 57 62 62 66 69 72 74
28 23 25 29 33 41 40 32 28 27 32 34 32 34 37 38 43 46 51 55 55 58 62 62 64 62 62 59 62 68 70 74
25 28 27 28 28 26 38 34 32 31 32 34 38 39 41 44 47 50 52 53 56 53 53 52 53 61 68 68 71 75 73 72
25 26 34 33 31 30 30 32 34 38 38 43 47 48 45 42 42 42 47 49 48 46 43 48 61 66 71 75 77 75 75 75
28 28 29 32 32 30 29 30 31 32 33 31 32 36 34 37 41 43 47 47 43 44 49 58 62 66 68 67 69 71 74 77
25 27 29 32 33 30 27 26 24 25 31 30 27 30 35 41 45 44 48 49 51 52 58 64 67 70 73 72 73 75 77 79
29 30 29 30 32 32 36 30 25 21 28 29 31 29 39 31 47 50 57 60 53 56 62 67 71 74 78 78 74 76 75 76
34 27 29 30 29 34 35 34 30 27 12 35 40 43 44 47 53 59 57 54 55 59 67 71 74 75 73 72 72 73 75 76
33 34 30 25 21 28 33 33 28 32 34 46 47 48 52 56 59 61 64 69 73 74 75 73 69 71 71 72 73 73 71 71
31 32 34 29 24 19 23 30 37 40 41 44 47 50 51 58 62 65 70 73 72 68 70 70 69 68 67 66 66 68 70 72
29 28 28 34 31 25 24 26 29 35 42 46 48 51 54 55 60 64 65 67 70 68 65 63 61 62 64 66 68 70 72 75
30 26 25 25 28 25 28 26 25 32 36 41 43 48 50 51 53 57 59 59 59 59 60 61 63 65 67 70 71 73 74 76
34 31 22 21 25 29 29 30 34 39 42 45 44 44 44 48 49 51 54 56 57 59 61 63 65 68 70 71 71 74 77 78

GFSFLT1_250_spd_060.txt.gz
Wind_Speed
22 23 19 24 29 30 36 38 41 55 73 76 72 64 64 62 60 60 62 61 57 61 64 61 61 59 55 53 55 52 55 56
18 22 20 20 24 32 32 39 40 49 60 77 76 69 66 57 59 56 57 60 59 59 60 63 63 66 65 68 67 64 67 70
19 22 22 16 15 20 28 31 40 43 52 68 70 73 62 55 55 51 53 59 57 57 59 64 64 65 65 66 69 72 75 73
23 21 25 19 16 14 16 20 26 32 34 42 53 57 56 57 56 62 53 60 60 61 58 59 61 64 63 63 63 66 65 67
26 25 18 21 18 17 17 15 18 19 14 20 31 39 40 45 43 46 53 56 57 61 61 62 62 63 60 63 65 67 64 64
35 28 29 21 23 21 21 23 24 24 25 30 30 31 32 30 36 38 41 44 46 50 56 60 61 62 66 66 67 65 65 65
24 23 19 24 24 26 25 27 30 30 32 32 35 38 36 41 40 43 43 46 48 52 56 59 64 67 66 67 66 63 62 67
23 16 16 15 20 26 32 32 34 34 38 33 37 40 40 36 36 42 40 42 45 48 50 52 55 60 64 66 69 71 74 73
19 20 14 19 22 22 23 30 31 36 32 32 32 33 35 36 36 41 43 43 45 48 48 49 48 52 51 58 65 67 67 69
22 18 19 22 26 24 24 27 28 26 31 32 32 33 36 39 42 45 47 49 51 51 48 46 48 51 53 62 67 68 72 77
24 23 24 23 26 31 31 26 24 27 30 30 30 30 30 32 34 34 36 40 43 44 42 47 50 57 61 66 69 73 75 76
24 21 20 24 25 28 32 30 24 22 21 21 21 26 29 31 32 22 32 39 49 52 54 53 53 54 62 68 71 75 78 81
23 23 22 21 22 26 26 28 27 24 18 21 25 31 39 36 31 28 25 32 63 61 52 55 60 62 62 64 68 74 82 88
25 24 25 24 21 23 26 27 22 19 25 28 31 34 46 43 42 37 45 58 61 63 66 68 63 65 69 74 82 88 85 83
31 28 25 22 20 20 24 25 23 29 32 33 37 45 48 43 49 56 55 60 66 72 74 76 73 75 78 85 87 84 84 87
31 28 28 28 25 19 17 23 25 30 36 41 45 50 48 49 50 60 64 67 72 72 73 75 80 86 85 83 84 84 79 77
30 33 29 29 26 23 19 18 25 28 35 48 50 55 57 63 59 60 61 63 67 70 70 73 74 76 80 78 74 75 77 78
30 32 32 33 32 27 25 20 18 30 37 41 45 47 50 54 59 59 59 62 65 69 71 71 71 71 72 73 73 75 74 74
31 32 32 32 33 34 33 30 26 21 27 40 44 46 54 60 63 62 58 60 59 60 62 63 66 67 67 68 69 68 69 73

GFSFLT1_250_spd_063.txt.gz
Wind_Speed
18 20 23 25 49 60 70 77 71 67 61 62 62 59 65 74 76 72 68 66 66 65 66 62 58 62 63 58 60 62 63 64
22 13 11 19 22 33 45 60 61 61 57 60 57 64 69 76 75 71 69 68 63 61 64 61 59 64 61 59 59 61 63 63
14 11 8 15 16 21 30 35 42 45 49 41 42 51 60 72 70 65 60 61 59 58 58 55 56 58 57 61 60 59 62 65
19 18 13 12 20 19 22 23 29 30 30 35 34 37 44 55 66 70 70 57 57 57 59 61 56 59 61 64 68 70 73 71
31 31 28 24 17 21 21 23 20 24 28 26 26 27 29 42 56 57 63 61 50 56 53 58 65 65 66 68 70 71 72 68
24 28 25 22 19 20 24 25 22 20 19 25 24 19 22 27 28 33 36 41 47 49 48 49 53 55 55 57 56 59 58 58
17 17 17 20 21 23 26 26 27 25 23 22 23 24 26 28 30 32 31 36 40 40 41 47 45 48 47 48 49 54 55 56
23 15 16 18 20 20 25 30 27 24 24 27 31 31 31 29 33 35 37 40 39 37 41 42 43 42 46 48 50 52 60 67
25 23 19 15 20 23 19 23 25 31 29 28 28 39 37 33 34 36 36 34 35 38 40 41 42 44 44 48 50 43 58 68
25 22 19 18 17 18 22 22 23 24 26 24 26 28 30 31 31 33 35 37 39 41 40 40 40 42 42 41 40 43 45 62
31 28 22 16 13 21 22 23 26 23 26 29 25 24 26 27 28 31 35 36 36 40 38 39 41 38 46 38 40 57 60 63
31 32 30 24 18 11 23 25 26 29 27 24 19 16 16 18 24 26 33 34 28 34 40 44 49 46 49 56 57 53 59 67
30 28 32 26 20 17 12 25 28 28 27 22 22 22 17 28 41 38 40 36 35 29 46 51 54 56 62 64 69 69 73 79
29 26 28 29 28 23 16 12 24 27 31 28 25 21 15 35 45 44 45 43 43 38 44 51 60 65 69 78 83 85 82 83
36 28 27 28 27 27 23 15 13 23 31 36 35 33 39 42 45 48 51 55 60 58 52 61 68 71 77 82 86 85 84 86
34 30 29 28 28 29 27 24 20 17 26 33 39 43 46 48 51 48 53 54 61 56 61 66 70 73 77 79 82 85 87 85
34 36 31 31 28 27 27 27 26 23 22 26 33 43 46 49 52 55 55 58 60 63 66 69 67 76 79 79 80 84 86 82
35 34 34 32 31 29 28 28 26 24 24 26 29 36 45 54 56 56 60 63 65 68 73 73 74 77 74 73 73 69 62 60
39 37 40 39 38 33 31 29 29 26 25 26 29 34 41 47 50 54 58 62 64 65 64 63 57 55 55 60 57 55 54 54

GFSFLT1_250_spd_066.txt.gz
Wind_Speed
17 24 27 36 49 65 64 64 65 66 57 65 66 59 55 55 62 64 65 65 67 70 71 67 66 67 65 62 60 59 56 59
14 7 16 29 29 38 63 66 69 71 64 63 64 64 65 70 63 66 67 64 66 67 68 73 68 61 58 61 61 61 64 54
12 10 7 18 22 30 33 48 60 74 70 71 70 68 69 68 70 77 68 67 67 65 70 70 64 61 60 61 60 60 55 54
15 12 15 15 15 17 22 25 36 51 68 68 78 79 73 70 62 65 67 67 68 67 69 68 64 62 62 65 63 60 58 61
23 16 12 14 14 18 20 24 27 30 39 53 58 72 79 67 55 62 66 66 61 59 63 62 60 63 68 56 55 56 56 58
30 21 16 13 14 19 23 23 23 25 26 32 33 34 40 45 43 42 46 45 49 47 53 61 63 55 53 58 58 56 55 53
34 27 19 16 16 15 23 25 25 26 23 22 25 26 27 28 30 30 31 30 35 39 40 46 51 51 52 56 55 50 51 55
37 30 27 18 16 16 17 20 28 27 30 25 22 24 24 24 27 27 28 35 36 36 40 41 40 44 47 47 45 47 50 51
34 32 28 24 19 16 16 18 25 33 31 30 27 29 33 33 33 34 30 32 35 40 41 39 43 46 47 46 45 48 50 52
31 31 28 27 23 19 18 19 23 25 27 33 32 30 30 31 33 39 40 37 35 34 33 36 40 44 46 45 47 49 47 51
32 31 29 28 23 21 19 19 23 24 27 26 28 32 30 28 25 24 25 28 28 30 33 35 38 39 42 47 49 50 41 45
32 34 27 29 26 20 21 20 22 26 27 28 27 29 32 31 28 29 27 26 31 34 37 36 41 45 47 47 47 48 49 51
34 32 32 29 31 27 20 21 22 26 28 30 32 32 34 34 34 31 32 27 39 43 43 39 40 45 49 50 51 58 58 54
36 33 33 33 28 30 28 22 19 20 31 36 38 38 40 41 43 42 36 36 40 46 46 46 48 47 50 53 57 60 62 67
41 38 34 36 31 31 33 28 19 18 19 34 42 43 43 45 47 45 39 41 43 47 45 47 49 55 56 59 62 62 66 70
43 45 41 39 38 35 32 36 30 22 18 19 29 40 43 45 45 45 47 45 47 49 51 54 55 59 62 63 63 63 65 69
45 49 43 41 42 39 36 35 34 33 28 22 19 20 31 40 45 46 45 48 48 53 56 57 59 61 64 67 72 77 76 69
51 52 51 45 48 44 38 38 35 33 35 33 28 25 22 24 35 43 47 49 53 55 56 57 56 57 60 61 63 63 63 64
58 58 57 51 48 47 43 42 39 38 37 37 36 32 32 30 31 31 32 34 38 41 44 47 49 50 51 54 56 57 60 63

GFSFLT1_250_spd_069.txt.gz
Wind_Speed
19 17 41 46 53 65 62 58 56 55 49 46 48 56 49 43 57 64 60 55 53 57 57 54 54 57 59 61 60 61 60 52
33 15 12 37 49 58 64 69 71 60 61 61 55 50 62 52 49 55 54 61 57 61 61 63 63 63 65 66 67 66 56 56
32 31 15 19 23 38 57 61 66 70 64 70 61 65 60 61 62 57 53 54 53 53 54 55 60 62 62 67 68 69 65 60
33 33 27 20 23 27 34 43 60 67 76 72 73 71 70 73 68 72 64 60 64 65 61 60 63 63 63 63 63 59 56 57
31 31 30 23 21 28 29 36 39 37 43 34 46 59 67 69 73 71 63 65 68 60 63 65 68 68 64 61 60 58 53 52
32 28 27 27 22 18 22 28 30 33 26 24 24 28 40 44 64 67 66 73 66 64 65 65 61 51 46 46 49 53 56 59
29 28 28 26 26 22 20 20 22 27 25 23 22 22 26 28 29 38 47 49 46 47 49 44 42 40 42 43 45 46 46 50
24 30 33 29 27 27 21 20 20 24 27 24 22 20 23 24 23 27 30 30 27 29 30 34 35 36 39 43 45 47 51 53
23 27 30 30 27 28 27 20 20 18 24 27 27 23 22 24 27 28 28 28 31 37 42 40 40 42 45 47 46 47 49 48
20 24 24 28 27 25 27 27 20 19 21 27 30 31 31 32 32 32 34 34 34 35 38 45 46 44 44 44 44 44 46 50
23 24 26 23 28 28 24 26 26 20 21 24 28 34 37 35 36 36 39 43 45 45 46 43 44 41 41 42 43 45 44 45
26 27 24 23 25 28 27 23 24 25 21 23 27 30 31 36 39 40 42 44 44 44 43 43 44 45 41 39 42 44 47 48
27 26 29 28 26 27 29 28 24 23 24 21 26 32 35 36 39 42 44 46 48 50 51 52 53 50 44 42 46 44 49 49
31 26 27 31 28 28 31 30 30 26 23 25 22 27 37 40 41 41 43 44 45 48 52 54 55 49 47 44 43 43 46 51
33 30 29 32 32 32 33 33 33 33 25 24 25 24 21 32 43 44 44 45 46 50 51 54 56 56 54 50 49 49 51 52
38 38 37 34 35 34 35 35 38 37 35 29 26 24 25 25 25 35 47 51 50 52 51 53 50 49 51 52 56 58 62 62
42 43 44 39 42 43 41 38 39 42 39 37 32 26 24 24 27 25 22 26 29 35 38 42 44 46 49 54 59 58 48 45
53 53 50 48 46 52 51 44 40 43 41 41 39 34 30 28 28 30 30 29 29 30 33 36 38 38 40 42 45 45 43 45
58 56 56 56 50 53 57 48 49 46 45 44 44 43 41 38 35 35 35 34 36 36 38 40 40 41 43 45 46 47 49 53